Weather History for KCKC - June, 2013

Change the Weather History Date:

Saturday, June 1, 2013

  Actual Average Record
Temperature  
Mean Temperature 45 °F -  
Max Temperature 53 °F 62 °F 75 °F (1997)
Min Temperature 37 °F 40 °F 28 °F (2015)
Degree Days  
Heating Degree Days 20    
Moisture  
Dew Point 42 °F    
Average Humidity 86    
Maximum Humidity 93    
Minimum Humidity 76    
Precipitation  
Precipitation 0.22 in - - ()
Sea Level Pressure  
Sea Level Pressure 29.72 in    
Wind  
Wind Speed 9 mph (North)    
Max Wind Speed 20 mph    
Max Gust Speed 29 mph    
Visibility 8 miles    
Events Rain    
Averages and records for this station are not official NWS values.
T = Trace of Precipitation, MM = Missing Value Source: NWS Daily Summary

Daily Weather History Graph

Daily Weather History Graph

Search for Another Location

Airport or City:

Trip Planner

Search our weather history database for the weather conditions in past years. The results will help you decide how hot, cold, wet, or windy it might be!

Date:

Astronomy

Jun. 01, 2013 Rise Set
Actual Time 5:06 AM CDT 8:52 PM CDT
Civil Twilight 4:27 AM CDT 9:32 PM CDT
Nautical Twilight 3:33 AM CDT 10:26 PM CDT
Astronomical Twilight 2:15 AM CDT 11:45 PM CDT
Moon 1:31 AM CDT (6/1) 1:55 PM CDT (6/1)
Length of Visible Light 17h 05m
Length of Day
15h 45m
Last Quarter, 40% of the Moon is Illuminated
Jun 1
Last Quarter
Jun 8
New
Jun 16
First Quarter
Jun 23
Full
Jun 29
Last Quarter

Hourly Weather History & Observations

Time (CDT) Temp. Windchill Dew Point Humidity Pressure Visibility Wind Dir Wind Speed Gust Speed Precip Events Conditions
12:13 AM 51.8 °F - 48.2 °F 88% 29.66 in 10.0 mi ESE 6.9 mph - N/A   Overcast
12:33 AM 51.8 °F - 48.2 °F 88% 29.67 in 4.0 mi ESE 9.2 mph - N/A   Overcast
12:54 AM 51.8 °F - 48.2 °F 88% 29.66 in 2.0 mi East 8.1 mph - N/A   Overcast
1:14 AM 51.8 °F - 48.2 °F 88% 29.65 in 1.8 mi East 6.9 mph - N/A   Overcast
1:33 AM 51.8 °F - 48.2 °F 88% 29.64 in 5.0 mi ENE 8.1 mph - N/A   Overcast
1:54 AM 50.0 °F - 46.4 °F 87% 29.64 in 4.0 mi ENE 4.6 mph - N/A   Overcast
2:13 AM 50.0 °F - 46.4 °F 87% 29.64 in 2.0 mi NNE 6.9 mph - N/A   Overcast
2:34 AM 50.0 °F - 46.4 °F 87% 29.63 in 3.0 mi North 3.5 mph - N/A   Overcast
2:54 AM 50.0 °F - 46.4 °F 87% 29.63 in 5.0 mi North 5.8 mph - N/A   Overcast
3:13 AM 50.0 °F - 46.4 °F 87% 29.63 in 10.0 mi North 4.6 mph - N/A   Overcast
3:33 AM 50.0 °F - 46.4 °F 87% 29.63 in 10.0 mi NE 3.5 mph - N/A   Overcast
3:54 AM 50.0 °F - 46.4 °F 87% 29.63 in 10.0 mi East 3.5 mph - N/A   Mostly Cloudy
4:14 AM 50.0 °F - 46.4 °F 87% 29.62 in 10.0 mi Calm Calm - N/A   Mostly Cloudy
4:34 AM 50.0 °F - 46.4 °F 87% 29.62 in 10.0 mi Calm Calm - N/A   Mostly Cloudy
4:54 AM 48.2 °F - 46.4 °F 93% 29.62 in 10.0 mi NNW 5.8 mph - N/A   Overcast
5:13 AM 48.2 °F - 46.4 °F 93% 29.63 in 10.0 mi North 5.8 mph - N/A   Mostly Cloudy
5:34 AM 50.0 °F - 46.4 °F 87% 29.63 in 10.0 mi North 4.6 mph - N/A   Mostly Cloudy
5:54 AM 50.0 °F - 46.4 °F 87% 29.63 in 10.0 mi NNW 5.8 mph - N/A   Mostly Cloudy
6:13 AM 51.8 °F - 48.2 °F 88% 29.64 in 10.0 mi North 4.6 mph - N/A   Mostly Cloudy
6:34 AM 53.6 °F - 48.2 °F 82% 29.64 in 10.0 mi North 6.9 mph - N/A   Scattered Clouds
6:54 AM 53.6 °F - 48.2 °F 82% 29.64 in 10.0 mi North 4.6 mph - N/A   Mostly Cloudy
7:13 AM 53.6 °F - 48.2 °F 82% 29.64 in 10.0 mi North 8.1 mph - N/A   Mostly Cloudy
7:33 AM 51.8 °F - 48.2 °F 88% 29.65 in 10.0 mi NNE 6.9 mph - N/A   Overcast
7:54 AM 53.6 °F - 48.2 °F 82% 29.65 in 10.0 mi NNE 6.9 mph - N/A   Overcast
8:13 AM 53.6 °F - 48.2 °F 82% 29.66 in 10.0 mi NE 6.9 mph - N/A   Overcast
8:33 AM 53.6 °F - 48.2 °F 82% 29.66 in 10.0 mi NNE 5.8 mph - N/A   Overcast
8:53 AM 53.6 °F - 48.2 °F 82% 29.67 in 10.0 mi NE 5.8 mph - N/A   Overcast
9:14 AM 53.6 °F - 48.2 °F 82% 29.67 in 10.0 mi NNE 5.8 mph - N/A   Overcast
9:33 AM 53.6 °F - 48.2 °F 82% 29.67 in 10.0 mi North 6.9 mph - N/A   Overcast
9:54 AM 51.8 °F - 48.2 °F 88% 29.68 in 5.0 mi North 5.8 mph - N/A   Overcast
10:13 AM 51.8 °F - 46.4 °F 82% 29.68 in 10.0 mi North 8.1 mph - N/A   Overcast
10:33 AM 51.8 °F - 46.4 °F 82% 29.68 in 7.0 mi North 9.2 mph - N/A   Overcast
10:54 AM 50.0 °F - 46.4 °F 87% 29.68 in 10.0 mi North 8.1 mph - N/A   Overcast
11:13 AM 48.2 °F - 44.6 °F 87% 29.69 in 7.0 mi NNW 10.4 mph - N/A   Overcast
11:34 AM 51.8 °F - 44.6 °F 76% 29.69 in 10.0 mi North 10.4 mph - N/A   Overcast
11:53 AM 51.8 °F - 44.6 °F 76% 29.70 in 10.0 mi North 9.2 mph - N/A   Overcast
12:14 PM 48.2 °F - 44.6 °F 87% 29.70 in 10.0 mi NNW 9.2 mph - N/A Rain Light Rain
12:33 PM 48.2 °F - 42.8 °F 82% 29.70 in 10.0 mi NNW 11.5 mph - N/A Rain Rain
12:54 PM 46.4 °F 41.9 °F 42.8 °F 87% 29.71 in 7.0 mi NNW 9.2 mph - 0.01 in Rain Light Rain
1:14 PM 46.4 °F 41.9 °F 42.8 °F 87% 29.71 in 10.0 mi NNW 9.2 mph - N/A   Light Drizzle
1:33 PM 44.6 °F 38.8 °F 39.2 °F 81% 29.72 in 7.0 mi NNW 11.5 mph 16.1 mph 0.01 in Rain Rain
1:53 PM 44.6 °F 39.2 °F 39.2 °F 81% 29.72 in 7.0 mi NNW 10.4 mph 17.3 mph 0.05 in Rain Rain
2:14 PM 44.6 °F 38.1 °F 39.2 °F 81% 29.73 in 5.0 mi NNW 13.8 mph 18.4 mph 0.01 in   Drizzle
2:34 PM 42.8 °F 35.4 °F 39.2 °F 87% 29.73 in 10.0 mi NNW 15.0 mph 20.7 mph 0.01 in   Overcast
2:54 PM 42.8 °F 35.1 °F 37.4 °F 81% 29.73 in 7.0 mi NNW 16.1 mph 24.2 mph 0.01 in   Overcast
3:13 PM 41.0 °F 33.5 °F 37.4 °F 87% 29.74 in 3.0 mi NNW 13.8 mph 21.9 mph 0.05 in Rain Heavy Rain
3:33 PM 39.2 °F 30.5 °F 35.6 °F 87% 29.75 in 10.0 mi NNW 16.1 mph 26.5 mph 0.07 in Rain Rain
3:54 PM 39.2 °F 30.8 °F 35.6 °F 87% 29.76 in 10.0 mi NNW 15.0 mph 24.2 mph 0.07 in   Light Drizzle
4:13 PM 39.2 °F 30.2 °F 35.6 °F 87% 29.76 in 10.0 mi NNW 17.3 mph 25.3 mph N/A   Overcast
4:34 PM 39.2 °F 30.2 °F 35.6 °F 87% 29.76 in 7.0 mi NNW 17.3 mph 26.5 mph N/A Rain Light Rain
4:53 PM 39.2 °F 29.8 °F 35.6 °F 87% 29.76 in 10.0 mi NNW 18.4 mph 27.6 mph N/A   Overcast
5:14 PM 39.2 °F 30.2 °F 35.6 °F 87% 29.77 in 10.0 mi NNW 17.3 mph 27.6 mph N/A   Overcast
5:34 PM 39.2 °F 30.2 °F 35.6 °F 87% 29.78 in 10.0 mi NNW 17.3 mph 27.6 mph N/A   Light Drizzle
5:53 PM 39.2 °F 30.2 °F 35.6 °F 87% 29.78 in 10.0 mi NNW 17.3 mph 24.2 mph N/A   Light Drizzle
6:13 PM 39.2 °F 29.8 °F 35.6 °F 87% 29.79 in 10.0 mi NNW 18.4 mph 28.8 mph 0.01 in   Drizzle
6:33 PM 39.2 °F 30.2 °F 35.6 °F 87% 29.80 in 7.0 mi North 17.3 mph 24.2 mph 0.02 in   Drizzle
6:53 PM 39.2 °F 30.5 °F 35.6 °F 87% 29.80 in 7.0 mi North 16.1 mph 26.5 mph 0.02 in Rain Rain
7:13 PM 39.2 °F 32.0 °F 35.6 °F 87% 29.81 in 7.0 mi NNW 11.5 mph 18.4 mph 0.01 in   Drizzle
7:34 PM 39.2 °F 30.5 °F 35.6 °F 87% 29.83 in 10.0 mi North 16.1 mph 23.0 mph 0.01 in   Drizzle
7:54 PM 39.2 °F 29.6 °F 35.6 °F 87% 29.84 in 10.0 mi North 19.6 mph 26.5 mph 0.02 in Rain Light Rain
8:13 PM 39.2 °F 31.6 °F 35.6 °F 87% 29.84 in 10.0 mi North 12.7 mph 21.9 mph N/A Rain Light Rain
8:34 PM 39.2 °F 34.2 °F 35.6 °F 87% 29.85 in 7.0 mi NNW 6.9 mph - 0.01 in Rain Rain
8:53 PM 39.2 °F 30.8 °F 35.6 °F 87% 29.86 in 10.0 mi NNW 15.0 mph 23.0 mph 0.02 in Rain Light Rain
9:14 PM 39.2 °F 33.0 °F 35.6 °F 87% 29.87 in 10.0 mi NNW 9.2 mph 21.9 mph N/A   Light Drizzle
9:34 PM 37.4 °F 30.3 °F 33.8 °F 87% 29.88 in 10.0 mi NNW 10.4 mph 19.6 mph 0.01 in   Drizzle
9:53 PM 37.4 °F 29.3 °F 33.8 °F 87% 29.88 in 7.0 mi NNW 12.7 mph 19.6 mph 0.01 in   Drizzle
10:13 PM 37.4 °F 29.3 °F 33.8 °F 87% 29.89 in 10.0 mi NNW 12.7 mph 21.9 mph N/A   Drizzle
10:33 PM 37.4 °F 30.8 °F 33.8 °F 87% 29.89 in 10.0 mi NNW 9.2 mph 17.3 mph N/A   Light Drizzle
10:53 PM 37.4 °F 30.8 °F 33.8 °F 87% 29.89 in 7.0 mi NNW 9.2 mph - 0.01 in Rain Light Rain
11:14 PM 37.4 °F 30.3 °F 33.8 °F 87% 29.89 in 10.0 mi NNW 10.4 mph 21.9 mph N/A   Overcast
11:34 PM 37.4 °F 28.9 °F 33.8 °F 87% 29.89 in 10.0 mi NNW 13.8 mph 20.7 mph N/A   Mostly Cloudy
11:53 PM 37.4 °F 28.2 °F 33.8 °F 87% 29.90 in 10.0 mi NNW 16.1 mph 26.5 mph N/A   Overcast